La Grande, OR

9:30 PM PDT on March 24, 2017 (GMT -0700)
La Grande-Union County

Weather History for KLGD - August, 2014

Change the Weather History Date:

Friday, August 22, 2014

  Actual Average Record
Temperature  
Mean Temperature 65 °F -  
Max Temperature 75 °F 81 °F 100 °F (1970)
Min Temperature 55 °F 48 °F 37 °F (1985)
Growing Degree Days 15 (Base 50)    
Moisture  
Dew Point 38 °F    
Average Humidity 41    
Maximum Humidity 63    
Minimum Humidity 24    
Precipitation  
Precipitation 0.05 in - - ()
Sea Level Pressure  
Sea Level Pressure 29.98 in    
Wind  
Wind Speed 12 mph (NW)    
Max Wind Speed 22 mph    
Max Gust Speed 36 mph    
Visibility 10 miles    
Events Thunderstorm    
Averages and records for this station are not official NWS values.
T = Trace of Precipitation, MM = Missing Value Source: NWS Daily Summary

Daily Weather History Graph

Daily Weather History Graph

Search for Another Location

Airport or City:

Trip Planner

Search our weather history database for the weather conditions in past years. The results will help you decide how hot, cold, wet, or windy it might be!

Date:

Astronomy

Aug. 22, 2014 Rise Set
Actual Time 6:01 AM PDT 7:47 PM PDT
Civil Twilight 5:30 AM PDT 8:18 PM PDT
Nautical Twilight 4:51 AM PDT 8:56 PM PDT
Astronomical Twilight 4:10 AM PDT 9:37 PM PDT
Moon 3:25 AM PDT (8/22) 6:00 PM PDT (8/22)
Length of Visible Light 14h 48m
Length of Day
13h 45m
Waning Crescent, 7% of the Moon is Illuminated
Aug 22
Waning Crescent
Aug 25
New
Sep 2
First Quarter
Sep 8
Full
Sep 15
Last Quarter

Hourly Weather History & Observations

Time (PDT) Temp. Dew Point Humidity Pressure Visibility Wind Dir Wind Speed Gust Speed Precip Events Conditions
12:15 AM 64.4 °F 26.6 °F 24% 29.94 in 10.0 mi WNW 12.7 mph - N/A   Clear
12:35 AM 64.4 °F 26.6 °F 24% 29.94 in 10.0 mi NW 12.7 mph - N/A   Clear
12:55 AM 62.6 °F 28.4 °F 27% 29.94 in 10.0 mi NW 10.4 mph - N/A   Clear
1:15 AM 60.8 °F 30.2 °F 31% 29.94 in 10.0 mi WNW 11.5 mph - N/A   Clear
1:35 AM 60.8 °F 30.2 °F 31% 29.94 in 10.0 mi NW 10.4 mph - N/A   Clear
1:55 AM 59.0 °F 30.2 °F 34% 29.94 in 10.0 mi NW 9.2 mph - N/A   Clear
2:15 AM 60.8 °F 33.8 °F 36% 29.94 in 10.0 mi NW 10.4 mph - N/A   Clear
2:35 AM 59.0 °F 30.2 °F 34% 29.95 in 10.0 mi NNW 8.1 mph - N/A   Clear
2:55 AM 57.2 °F 30.2 °F 36% 29.94 in 10.0 mi NW 10.4 mph - N/A   Clear
3:15 AM 59.0 °F 30.2 °F 34% 29.95 in 10.0 mi NW 9.2 mph - N/A   Clear
3:35 AM 59.0 °F 30.2 °F 34% 29.95 in 10.0 mi NNW 8.1 mph - N/A   Clear
3:55 AM 55.4 °F 28.4 °F 36% 29.95 in 10.0 mi North 5.8 mph - N/A   Clear
4:15 AM 57.2 °F 30.2 °F 36% 29.94 in 10.0 mi NNW 10.4 mph - N/A   Clear
4:35 AM 57.2 °F 32.0 °F 38% 29.94 in 10.0 mi NW 16.1 mph - N/A   Clear
4:55 AM 59.0 °F 32.0 °F 36% 29.94 in 10.0 mi WNW 15.0 mph - N/A   Clear
5:15 AM 59.0 °F 33.8 °F 39% 29.95 in 10.0 mi WNW 10.4 mph - N/A   Clear
5:35 AM 57.2 °F 33.8 °F 41% 29.95 in 10.0 mi WNW 11.5 mph - N/A   Clear
5:55 AM 55.4 °F 32.0 °F 41% 29.96 in 10.0 mi WNW 9.2 mph - N/A   Clear
6:15 AM 55.4 °F 32.0 °F 41% 29.96 in 10.0 mi WNW 9.2 mph - N/A   Clear
6:35 AM 57.2 °F 33.8 °F 41% 29.97 in 10.0 mi WNW 9.2 mph - N/A   Clear
6:55 AM 57.2 °F 33.8 °F 41% 29.97 in 10.0 mi WNW 10.4 mph - N/A   Clear
7:15 AM 57.2 °F 35.6 °F 44% 29.97 in 10.0 mi WNW 11.5 mph - N/A   Clear
7:35 AM 57.2 °F 35.6 °F 44% 29.98 in 10.0 mi NW 12.7 mph - N/A   Clear
7:55 AM 60.8 °F 37.4 °F 42% 29.98 in 10.0 mi NW 12.7 mph - N/A   Partly Cloudy
8:15 AM 60.8 °F 37.4 °F 42% 29.98 in 10.0 mi NW 13.8 mph - N/A   Clear
8:35 AM 62.6 °F 37.4 °F 39% 29.98 in 10.0 mi WNW 11.5 mph - N/A   Scattered Clouds
8:55 AM 62.6 °F 37.4 °F 39% 29.98 in 10.0 mi NW 13.8 mph 20.7 mph N/A   Scattered Clouds
9:15 AM 64.4 °F 39.2 °F 40% 29.98 in 10.0 mi NW 17.3 mph - N/A   Partly Cloudy
9:35 AM 66.2 °F 39.2 °F 37% 29.99 in 10.0 mi West 13.8 mph 20.7 mph N/A   Partly Cloudy
9:55 AM 66.2 °F 39.2 °F 37% 29.98 in 10.0 mi NW 12.7 mph - N/A   Partly Cloudy
10:15 AM 68.0 °F 39.2 °F 35% 29.99 in 10.0 mi NW 11.5 mph - N/A   Scattered Clouds
10:35 AM 69.8 °F 39.2 °F 33% 29.99 in 10.0 mi NW 10.4 mph - N/A   Mostly Cloudy
10:55 AM 69.8 °F 39.2 °F 33% 29.98 in 10.0 mi NW 9.2 mph 17.3 mph N/A   Mostly Cloudy
11:15 AM 69.8 °F 39.2 °F 33% 29.98 in 10.0 mi NW 9.2 mph - N/A   Scattered Clouds
11:35 AM 69.8 °F 41.0 °F 35% 29.97 in 10.0 mi NW 8.1 mph - N/A   Partly Cloudy
11:55 AM 71.6 °F 41.0 °F 33% 29.96 in 10.0 mi NNW 10.4 mph 17.3 mph N/A   Clear
12:15 PM 73.4 °F 42.8 °F 33% 29.96 in 10.0 mi WNW 12.7 mph 18.4 mph N/A   Clear
12:35 PM 71.6 °F 42.8 °F 35% 29.95 in 10.0 mi WNW 15.0 mph 19.6 mph N/A   Partly Cloudy
12:55 PM 75.2 °F 42.8 °F 31% 29.95 in 10.0 mi WNW 15.0 mph - N/A   Clear
1:15 PM 75.2 °F 42.8 °F 31% 29.94 in 10.0 mi WNW 16.1 mph 19.6 mph N/A   Partly Cloudy
1:35 PM 75.2 °F 42.8 °F 31% 29.94 in 10.0 mi NW 17.3 mph 23.0 mph N/A   Partly Cloudy
1:55 PM 75.2 °F 42.8 °F 31% 29.94 in 10.0 mi NW 18.4 mph 25.3 mph N/A   Partly Cloudy
2:15 PM 75.2 °F 42.8 °F 31% 29.94 in 10.0 mi WNW 20.7 mph 25.3 mph N/A   Clear
2:35 PM 75.2 °F 41.0 °F 29% 29.94 in 10.0 mi WNW 17.3 mph 26.5 mph N/A   Clear
2:55 PM 75.2 °F 42.8 °F 31% 29.93 in 10.0 mi NW 19.6 mph 23.0 mph N/A   Clear
3:15 PM 75.2 °F 41.0 °F 29% 29.93 in 10.0 mi NW 18.4 mph 27.6 mph N/A Thunderstorm Clear
3:35 PM 75.2 °F 41.0 °F 29% 29.94 in 10.0 mi WNW 19.6 mph 24.2 mph N/A   Clear
3:55 PM 75.2 °F 42.8 °F 31% 29.94 in 10.0 mi NW 19.6 mph - N/A Thunderstorm Clear
4:15 PM 75.2 °F 42.8 °F 31% 29.94 in 10.0 mi NW 21.9 mph 26.5 mph N/A Thunderstorm Clear
4:35 PM 75.2 °F 42.8 °F 31% 29.94 in 10.0 mi WNW 18.4 mph 24.2 mph N/A   Clear
4:55 PM 68.0 °F 37.4 °F 33% 29.98 in 10.0 mi SE 21.9 mph 31.1 mph N/A Thunderstorm Mostly Cloudy
5:15 PM 64.4 °F 37.4 °F 37% 30.01 in 10.0 mi ENE 18.4 mph 35.7 mph N/A Thunderstorm Overcast
5:35 PM 60.8 °F 39.2 °F 45% 30.00 in 10.0 mi East 21.9 mph 32.2 mph N/A Thunderstorm Thunderstorm
5:55 PM 57.2 °F 41.0 °F 55% 30.03 in 10.0 mi South 5.8 mph - 0.03 in Thunderstorm Thunderstorm
6:15 PM 57.2 °F 42.8 °F 59% 30.02 in 10.0 mi South 8.1 mph - 0.02 in   Mostly Cloudy
6:35 PM 57.2 °F 42.8 °F 59% 30.02 in 10.0 mi SSW 9.2 mph - 0.02 in   Mostly Cloudy
6:55 PM 57.2 °F 42.8 °F 59% 30.02 in 10.0 mi SSW 8.1 mph - 0.02 in   Scattered Clouds
7:15 PM 57.2 °F 42.8 °F 59% 30.01 in 10.0 mi SSW 6.9 mph - N/A   Clear
7:55 PM 57.2 °F 42.8 °F 59% 30.02 in 10.0 mi WNW 6.9 mph - N/A   Mostly Cloudy
8:15 PM 59.0 °F 42.8 °F 55% 30.03 in 10.0 mi East 8.1 mph - N/A   Mostly Cloudy
8:35 PM 57.2 °F 42.8 °F 59% 30.03 in 10.0 mi East 3.5 mph - N/A   Overcast
8:55 PM 55.4 °F 42.8 °F 63% 30.05 in 10.0 mi SW 4.6 mph - N/A   Overcast
9:15 PM 57.2 °F 42.8 °F 59% 30.05 in 10.0 mi Calm Calm - N/A   Scattered Clouds
9:35 PM 55.4 °F 42.8 °F 63% 30.05 in 10.0 mi NE 5.8 mph - N/A   Clear
9:55 PM 55.4 °F 42.8 °F 63% 30.06 in 10.0 mi North 3.5 mph - N/A   Clear
10:15 PM 55.4 °F 42.8 °F 63% 30.06 in 10.0 mi WNW 6.9 mph - N/A   Scattered Clouds
10:35 PM 57.2 °F 41.0 °F 55% 30.07 in 10.0 mi NW 8.1 mph - N/A   Scattered Clouds
10:55 PM 57.2 °F 39.2 °F 51% 30.06 in 10.0 mi North 13.8 mph - N/A   Mostly Cloudy
11:15 PM 57.2 °F 39.2 °F 51% 30.05 in 10.0 mi NNW 10.4 mph - N/A   Mostly Cloudy
11:35 PM 57.2 °F 41.0 °F 55% 30.05 in 10.0 mi WNW 10.4 mph - N/A   Overcast
11:55 PM 57.2 °F 41.0 °F 55% 30.04 in 10.0 mi NW 6.9 mph - N/A   Overcast